| time (UTC) | temp F | wind direction | speed MPH | gust MPH | rain 1hr in | rain 24hr in | rain mn in | humidity % | barometer mb |
| 20260507043058 | 0 | 0.0 | 0.0 | 0.00 | 0.08 | 0.08 | 1012.2 | ||
| 20260507041601 | 0 | 0.0 | 0.0 | 0.00 | 0.08 | 0.08 | 1012.0 | ||
| 20260507040106 | 0 | 0.0 | 0.0 | 0.00 | 0.08 | 0.08 | 1011.9 | ||
| 20260507034619 | 0 | 0.0 | 0.0 | 0.00 | 0.08 | 0.08 | 1012.0 | ||
| 20260507033106 | 0 | 0.0 | 0.0 | 0.00 | 0.08 | 0.08 | 1012.0 | ||
| 20260507031556 | 0 | 0.0 | 0.0 | 0.00 | 0.08 | 0.08 | 1012.0 | ||
| 20260507030044 | 0 | 0.0 | 0.0 | 0.00 | 0.08 | 0.08 | 1012.1 | ||
| 20260507024553 | 0 | 0.0 | 0.0 | 0.00 | 0.08 | 0.08 | 1012.0 | ||
| 20260507023043 | 0 | 0.0 | 0.0 | 0.00 | 0.08 | 0.08 | 1012.2 | ||
| 20260507021540 | 50 | 229 | 0.0 | 0.0 | 0.00 | 0.08 | 0.08 | 1 | 1012.3 |
| 20260507020034 | 50 | 229 | 0.0 | 0.0 | 0.00 | 0.08 | 0.08 | 1 | 1012.2 |
| 20260507014530 | 50 | 229 | 0.0 | 0.0 | 0.00 | 0.08 | 0.08 | 1 | 1012.1 |
| 20260507013025 | 50 | 229 | 0.0 | 0.0 | 0.00 | 0.08 | 0.08 | 1 | 1012.1 |
| 20260507011521 | 51 | 229 | 0.0 | 0.0 | 0.00 | 0.08 | 0.08 | 1 | 1012.0 |
| 20260507010059 | 51 | 229 | 0.0 | 0.0 | 0.00 | 0.09 | 0.08 | 1 | 1012.1 |
| 20260507004555 | 51 | 229 | 0.0 | 1.0 | 0.00 | 0.09 | 0.08 | 1 | 1012.2 |
| 20260507003038 | 52 | 229 | 0.0 | 0.0 | 0.00 | 0.09 | 0.08 | 1 | 1012.1 |
| 20260507003013 | 52 | 229 | 0.0 | 0.0 | 0.00 | 0.09 | 0.08 | 1 | 1012.2 |
| 20260507000030 | 52 | 229 | 0.0 | 0.0 | 0.00 | 0.09 | 0.08 | 1 | 1012.2 |
| 20260506234542 | 52 | 229 | 0.0 | 0.0 | 0.00 | 0.09 | 0.08 | 1 | 1012.1 |
| 20260506233023 | 53 | 228 | 0.0 | 1.0 | 0.01 | 0.09 | 0.08 | 1 | 1012.4 |
| 20260506231522 | 53 | 229 | 0.0 | 0.0 | 0.01 | 0.09 | 0.08 | 1 | 1012.2 |
| 20260506230021 | 53 | 228 | 0.0 | 0.0 | 0.01 | 0.10 | 0.08 | 1 | 1012.1 |
| 20260506224525 | 53 | 228 | 0.0 | 1.0 | 0.01 | 0.10 | 0.08 | 1 | 1012.2 |
| 20260506223103 | 53 | 228 | 0.0 | 0.0 | 0.00 | 0.09 | 0.07 | 1 | 1012.2 |
| 20260506221554 | 53 | 228 | 0.0 | 0.0 | 0.00 | 0.09 | 0.07 | 1 | 1012.1 |
| 20260506220104 | 53 | 228 | 0.0 | 1.0 | 0.00 | 0.09 | 0.07 | 1 | 1011.9 |
| 20260506214546 | 54 | 229 | 0.0 | 1.0 | 0.00 | 0.09 | 0.07 | 1 | 1012.0 |
| 20260506213041 | 55 | 229 | 0.0 | 2.0 | 0.00 | 0.09 | 0.07 | 1 | 1012.2 |
| 20260506211542 | 55 | 229 | 0.0 | 1.0 | 0.00 | 0.09 | 0.07 | 1 | 1012.0 |
| 20260506210032 | 56 | 229 | 0.0 | 0.0 | 0.00 | 0.10 | 0.07 | 1 | 1011.9 |
| 20260506204531 | 56 | 229 | 0.0 | 0.0 | 0.00 | 0.10 | 0.07 | 1 | 1011.8 |
| 20260506203013 | 57 | 229 | 0.0 | 1.0 | 0.00 | 0.10 | 0.07 | 1 | 1011.7 |
| 20260506201506 | 57 | 229 | 0.0 | 1.0 | 0.00 | 0.10 | 0.07 | 1 | 1011.7 |
| 20260506200003 | 57 | 229 | 0.0 | 1.0 | 0.00 | 0.11 | 0.07 | 6 | 1011.5 |
| 20260506194601 | 58 | 229 | 0.0 | 1.0 | 0.00 | 0.11 | 0.07 | 10 | 1011.3 |
| 20260506193056 | 58 | 229 | 0.0 | 1.0 | 0.01 | 0.11 | 0.07 | 16 | 1011.0 |
| 20260506191548 | 58 | 229 | 0.0 | 2.0 | 0.01 | 0.11 | 0.07 | 21 | 1010.8 |
| 20260506190044 | 58 | 229 | 0.0 | 1.0 | 0.01 | 0.12 | 0.07 | 26 | 1010.6 |
| 20260506184540 | 58 | 229 | 0.0 | 2.0 | 0.01 | 0.12 | 0.07 | 29 | 1010.4 |
| 20260506183023 | 59 | 228 | 0.0 | 2.0 | 0.00 | 0.11 | 0.06 | 29 | 1010.3 |
| 20260506181518 | 59 | 223 | 0.0 | 5.0 | 0.00 | 0.11 | 0.06 | 27 | 1010.1 |
| 20260506180014 | 59 | 225 | 0.0 | 4.0 | 0.00 | 0.12 | 0.06 | 21 | 1010.2 |
| 20260506174510 | 59 | 236 | 0.0 | 4.0 | 0.00 | 0.12 | 0.06 | 14 | 1010.1 |
| 20260506173005 | 58 | 229 | 1.0 | 5.0 | 0.00 | 0.12 | 0.06 | 7 | 1009.9 |
| 20260506171501 | 58 | 229 | 1.0 | 7.0 | 0.00 | 0.12 | 0.06 | 1 | 1009.8 |
| 20260506170104 | 57 | 250 | 1.0 | 7.0 | 0.00 | 0.13 | 0.06 | 1 | 1009.7 |
| 20260506164553 | 56 | 238 | 1.0 | 7.0 | 0.00 | 0.13 | 0.06 | 1 | 1009.7 |
| 20260506163049 | 56 | 240 | 3.0 | 10.0 | 0.01 | 0.13 | 0.06 | 1 | 1009.7 |
| 20260506161532 | 57 | 238 | 1.0 | 9.0 | 0.01 | 0.13 | 0.06 | 1 | 1009.8 |
| 20260506160037 | 58 | 223 | 2.0 | 8.0 | 0.01 | 0.15 | 0.06 | 1 | 1009.5 |
| 20260506154524 | 59 | 250 | 2.0 | 9.0 | 0.01 | 0.15 | 0.06 | 1 | 1009.3 |
| 20260506153017 | 59 | 240 | 2.0 | 7.0 | 0.00 | 0.14 | 0.06 | 1 | 1009.1 |
| 20260506151517 | 59 | 268 | 2.0 | 8.0 | 0.01 | 0.14 | 0.06 | 1 | 1009.1 |
| 20260506150008 | 59 | 265 | 2.0 | 7.0 | 0.01 | 0.17 | 0.06 | 1 | 1009.0 |
| 20260506144503 | 60 | 250 | 1.0 | 9.0 | 0.01 | 0.17 | 0.06 | 1 | 1009.1 |
| 20260506143059 | 61 | 248 | 0.0 | 4.0 | 0.01 | 0.17 | 0.06 | 1 | 1009.0 |
| 20260506141543 | 61 | 243 | 1.0 | 4.0 | 0.00 | 0.16 | 0.05 | 1 | 1009.2 |
| 20260506140038 | 60 | 270 | 3.0 | 13.0 | 0.01 | 0.17 | 0.05 | 1 | 1009.3 |
| 20260506134533 | 58 | 225 | 3.0 | 10.0 | 0.01 | 0.17 | 0.05 | 1 | 1009.3 |
| 20260506133028 | 57 | 284 | 4.0 | 15.0 | 0.02 | 0.17 | 0.05 | 1 | 1009.1 |
| 20260506131540 | 58 | 259 | 2.0 | 9.0 | 0.02 | 0.17 | 0.05 | 1 | 1009.2 |
| 20260506130034 | 62 | 236 | 4.0 | 12.0 | 0.02 | 0.19 | 0.04 | 1 | 1009.5 |
| 20260506124516 | 62 | 242 | 2.0 | 10.0 | 0.01 | 0.18 | 0.03 | 1 | 1009.4 |
| 20260506123011 | 63 | 249 | 3.0 | 12.0 | 0.02 | 0.18 | 0.03 | 1 | 1009.5 |
| 20260506121553 | 63 | 218 | 5.0 | 15.0 | 0.02 | 0.18 | 0.03 | 1 | 1009.4 |
| 20260506120050 | 63 | 229 | 2.0 | 9.0 | 0.01 | 0.19 | 0.02 | 1 | 1009.3 |
| 20260506114545 | 62 | 219 | 2.0 | 8.0 | 0.02 | 0.19 | 0.02 | 1 | 1009.5 |
| 20260506113041 | 61 | 271 | 2.0 | 12.0 | 0.02 | 0.18 | 0.02 | 1 | 1009.6 |
| 20260506111536 | 61 | 231 | 2.0 | 8.0 | 0.02 | 0.18 | 0.02 | 1 | 1009.6 |
| 20260506110032 | 61 | 229 | 4.0 | 9.0 | 0.01 | 0.17 | 0.01 | 1 | 1009.8 |
| 20260506104527 | 61 | 228 | 4.0 | 12.0 | 0.01 | 0.17 | 0.01 | 1 | 1009.8 |
| 20260506103034 | 61 | 219 | 1.0 | 10.0 | 0.00 | 0.17 | 0.00 | 1 | 1009.9 |
| 20260506101601 | 61 | 229 | 2.0 | 5.0 | 0.00 | 0.17 | 0.00 | 1 | 1010.0 |
| 20260506100056 | 60 | 281 | 0.0 | 7.0 | 0.00 | 0.17 | 0.00 | 1 | 1009.9 |
| 20260506094549 | 60 | 211 | 1.0 | 10.0 | 0.00 | 0.17 | 0.00 | 1 | 1009.8 |
| 20260506093039 | 0 | 0.0 | 0.0 | 0.00 | 0.17 | 0.00 | 1009.7 | ||
| 20260506091532 | 0 | 0.0 | 0.0 | 0.00 | 0.17 | 0.00 | 1009.6 | ||
| 20260506090031 | 0 | 0.0 | 0.0 | 0.00 | 0.17 | 0.00 | 1009.7 | ||
| 20260506084527 | 0 | 0.0 | 0.0 | 0.00 | 0.17 | 0.00 | 1009.7 | ||
| 20260506083022 | 0 | 0.0 | 0.0 | 0.00 | 0.17 | 0.00 | 1009.6 | ||
| 20260506081518 | 0 | 0.0 | 0.0 | 0.00 | 0.17 | 0.00 | 1009.7 | ||
| 20260506073003 | 0 | 0.0 | 0.0 | 0.00 | 0.17 | 0.17 | 1009.5 | ||
| 20260506071502 | 0 | 0.0 | 0.0 | 0.00 | 0.17 | 0.17 | 1009.4 | ||
| 20260506061600 | 0 | 0.0 | 0.0 | 0.00 | 0.17 | 0.17 | 1009.1 | ||
| 20260506060128 | 0 | 0.0 | 0.0 | 0.00 | 0.17 | 0.17 | 1009.1 | ||
| 20260506044536 | 0 | 0.0 | 0.0 | 0.00 | 0.17 | 0.17 | 1008.9 |